{"data":{"norad_id":68323,"epoch":"2026-05-25T04:00:03.998880Z","epoch_age_seconds":67847,"freshness":"FRESH","line1":"1 68323U 26059C   26145.16671295 -.03621491  00000+0 -10669+0 0  9997","line2":"2 68323  53.1604 348.8989 0001020 134.1335 194.5665 15.38588565  5875","mean_motion":15.38588565,"eccentricity":0.000102,"inclination_deg":53.1604,"raan_deg":348.8989,"arg_perigee_deg":134.1335,"mean_anomaly_deg":194.5665,"bstar":-0.10669,"rev_number":587,"period_min":93.592272343451,"perigee_km":449.58569483032,"apogee_km":450.97869234581,"semimajor_km":6828.4191935881,"source":"CELESTRAK","updated_at":"2026-05-25T13:38:21.921549Z"}}